Wind_Speed
7 6 6 7 7 8 9 10 11 9 10 13 12 10 9 10 11 14 16 19 18 20 18 20 24 26 29 27 21 10 9 12 14 15 14 14 13 14 14 12 13 14 14
9 7 7 7 7 9 10 11 12 13 12 13 17 10 7 6 5 6 12 12 16 17 16 18 20 21 18 14 15 9 7 7 15 18 17 17 15 13 13 12 12 11 10
11 9 8 8 8 8 9 10 13 15 14 14 14 17 14 11 12 10 15 17 15 14 15 17 21 17 17 14 13 10 8 9 13 17 18 16 13 12 12 10 9 8 8
12 11 11 10 11 9 9 10 12 14 16 16 16 16 14 10 12 16 17 17 16 15 14 15 15 15 15 15 12 10 12 13 14 13 15 13 12 12 11 10 9 10 10
13 13 12 11 11 11 10 9 11 12 14 16 17 17 16 14 13 16 17 17 18 18 17 15 12 13 14 12 10 10 12 12 12 12 12 11 10 8 14 12 14 12 14
15 13 13 14 13 12 11 10 12 13 13 14 14 15 16 15 18 18 15 15 15 16 15 14 15 13 12 11 9 11 12 12 12 10 8 7 8 11 13 17 14 15 16
16 15 14 14 15 14 13 12 11 11 12 14 15 14 13 15 15 17 17 14 15 14 13 12 11 11 10 10 10 9 10 9 7 6 7 9 10 15 16 16 18 19 21
17 16 15 15 17 16 15 13 11 10 11 11 11 11 11 11 10 10 11 10 9 9 8 7 7 7 6 5 5 4 4 8 11 11 12 12 12 10 15 16 16 18 21
20 18 17 17 18 18 17 15 13 12 11 11 10 8 8 8 10 9 9 8 7 6 5 4 4 4 6 8 8 9 9 9 13 13 13 13 16 16 14 12 17 17 20
22 21 19 18 19 19 19 17 15 13 12 12 10 9 9 8 11 11 11 9 9 8 7 8 12 10 13 14 10 9 8 6 6 7 11 15 17 19 21 23 19 20 21
23 22 21 19 19 19 19 18 16 15 13 12 11 10 10 10 11 13 14 10 12 11 11 10 10 12 12 11 8 5 5 5 8 10 11 12 12 12 13 16 18 20 22
25 24 23 21 20 20 20 19 17 16 15 14 12 11 12 11 13 16 16 13 11 10 8 7 7 9 9 9 10 10 11 12 10 13 14 14 14 14 13 13 14 16 20
27 26 26 23 21 21 21 20 19 18 18 17 16 15 14 13 12 15 17 17 13 8 5 7 10 8 9 11 13 14 15 12 12 14 15 14 13 11 11 14 15 17 20
29 27 27 27 24 22 21 21 20 20 19 19 18 17 16 16 15 13 18 18 19 16 14 12 13 12 11 10 11 12 13 12 12 13 13 13 13 14 14 12 14 15 18
32 30 29 27 29 25 24 24 24 22 22 21 20 19 18 17 18 16 14 13 12 12 10 9 7 6 7 9 9 8 6 7 8 8 9 10 11 12 13 13 12 12 16
32 32 32 30 30 27 26 24 25 22 26 24 19 18 16 11 13 16 15 10 10 11 9 10 9 7 6 5 4 4 2 2 5 7 8 9 11 13 15 16 13 14 16
34 32 32 32 30 30 28 27 24 26 22 28 26 23 17 12 12 9 9 7 9 11 9 6 6 5 3 1 1 1 3 6 6 7 8 9 10 12 14 18 17 17 19
35 35 35 35 32 31 30 28 26 26 27 25 27 26 24 22 20 15 10 11 8 9 8 6 5 4 6 7 8 8 9 10 11 11 9 9 11 11 13 14 16 17 17
35 35 35 32 34 33 31 29 28 26 25 26 18 12 16 17 18 17 16 13 10 7 7 7 7 11 12 14 15 14 13 13 10 10 11 7 7 9 10 13 14 16 16
34 34 32 32 29 30 29 29 28 26 24 24 23 16 16 16 14 13 10 9 10 12 13 14 15 16 15 15 17 13 9 4 4 2 4 6 6 8 11 12 13 15 16
29 31 33 33 30 29 28 27 26 25 25 23 22 19 19 14 14 16 15 16 17 18 18 20 17 15 13 13 12 9 6 6 5 7 4 5 6 7 8 10 12 14 16
25 27 28 32 29 27 27 27 25 24 23 19 14 17 23 17 20 21 22 22 21 20 17 16 18 16 13 13 13 8 8 6 5 4 3 5 6 8 9 11 12 14 15
23 24 24 27 28 25 22 25 26 24 18 18 21 26 22 23 24 25 25 23 20 22 20 18 13 13 13 11 12 9 6 3 2 4 5 6 7 9 10 12 14 15 16
22 21 21 22 27 28 27 26 21 19 22 22 25 26 27 28 28 28 27 27 26 24 20 17 14 12 12 11 10 8 5 4 4 4 5 7 8 9 10 11 14 15 14
18 18 20 21 21 24 23 25 24 25 26 26 25 27 28 29 30 31 31 33 33 31 21 16 14 14 13 12 10 8 8 7 8 8 6 7 8 10 11 13 15 17 18
18 17 17 22 22 24 25 26 28 30 30 29 29 29 30 28 27 30 28 27 21 23 23 18 17 16 14 12 10 9 7 7 8 8 4 7 10 13 13 16 18 19 20
Wind_Direction
129 113 95 92 72 71 65 66 76 91 113 86 89 108 100 98 100 98 107 120 125 145 147 153 157 154 148 152 156 145 171 168 138 151 148 151 164 167 171 181 197 190 202
140 132 111 105 98 83 80 79 87 99 110 120 108 116 125 128 128 126 129 128 127 140 134 138 148 149 156 175 177 202 179 166 149 150 154 164 169 169 180 193 200 208 207
149 145 134 119 120 98 91 86 84 96 108 117 124 122 125 121 113 117 131 131 129 131 139 140 157 158 166 164 178 176 161 151 152 164 168 169 163 175 185 187 198 203 203
153 149 146 139 139 122 110 104 99 93 100 107 115 123 130 123 112 117 124 127 124 125 137 140 153 160 162 159 160 162 157 152 159 169 170 169 177 187 203 204 212 215 211
159 152 154 152 144 143 130 123 113 110 108 107 106 107 110 113 112 112 112 115 117 119 118 118 130 147 148 148 151 155 153 161 163 166 174 183 185 195 211 224 231 229 230
167 159 159 162 155 155 150 137 130 124 120 119 114 109 101 103 124 119 118 118 117 114 111 115 119 122 127 143 162 170 169 175 180 183 180 207 215 224 228 229 231 229 240
175 167 165 167 166 162 161 157 147 141 132 126 123 119 112 113 113 117 115 118 121 124 128 131 128 132 130 147 149 158 178 188 193 210 246 237 238 228 230 227 232 237 243
182 174 172 172 174 170 169 166 161 156 151 146 138 132 134 141 141 137 128 121 123 125 129 136 141 142 155 149 134 140 176 205 217 224 230 233 235 236 232 238 246 253 257
184 181 178 176 175 178 177 175 173 167 164 166 167 164 160 167 173 171 156 161 157 148 142 137 144 153 184 172 168 179 191 207 219 225 235 239 239 242 236 240 244 248 255
185 184 181 179 177 180 183 183 182 182 181 183 184 186 187 183 191 185 167 165 157 160 159 175 173 178 179 175 175 186 197 212 228 249 257 259 259 257 252 247 250 255 260
184 182 181 181 179 180 180 181 181 185 187 191 191 194 194 187 195 188 172 169 166 166 169 178 190 184 182 187 187 207 228 234 258 259 265 268 264 263 261 262 249 255 270
186 182 181 181 180 179 179 181 183 183 186 187 188 193 196 195 194 194 189 165 171 170 171 177 196 205 213 215 227 235 251 258 264 266 269 271 273 275 277 276 271 266 262
188 184 182 182 183 181 181 180 180 182 186 187 188 190 188 193 200 207 203 199 195 179 180 202 208 220 222 233 242 248 254 259 260 267 271 277 282 289 289 285 282 278 275
189 188 184 183 185 184 186 186 188 187 191 190 188 189 190 192 195 199 207 208 216 222 228 234 240 245 244 234 252 261 254 254 266 279 284 288 284 281 287 288 288 294 303
187 189 189 188 186 187 192 191 194 196 195 192 193 191 190 195 200 194 187 189 199 211 210 216 225 231 236 240 240 242 257 273 278 288 292 300 305 306 309 313 305 298 289
187 190 192 191 189 192 192 195 203 203 205 201 202 200 197 187 183 187 189 188 202 208 202 228 230 230 234 245 263 263 275 314 326 330 330 336 336 335 329 317 316 322 310
191 192 194 198 192 196 195 197 196 211 210 214 214 210 202 192 204 203 174 211 212 207 219 225 209 197 176 131 39 29 62 42 12 13 17 8 356 343 339 323 326 328 325
198 194 197 197 200 199 200 201 202 197 203 215 224 225 231 233 235 231 203 183 197 214 222 208 184 158 122 95 78 63 51 55 41 32 12 13 357 341 330 323 328 331 332
202 202 202 203 205 204 202 203 205 205 205 205 179 197 218 224 226 220 213 211 210 182 163 135 132 123 107 107 105 91 78 65 54 17 352 350 344 323 319 332 336 334 329
207 209 203 209 207 208 211 207 208 208 207 209 186 176 154 142 143 148 151 148 134 129 129 126 118 110 109 114 115 123 118 68 65 69 341 343 351 341 335 341 336 334 332
206 205 207 209 207 208 208 214 211 210 209 208 214 165 174 176 153 140 132 130 130 129 127 122 125 122 127 116 97 91 83 109 70 53 9 358 357 2 345 347 343 338 333
203 205 201 210 215 205 208 212 212 210 210 197 139 146 150 150 142 134 130 124 120 122 121 124 120 117 111 97 99 121 86 58 50 52 19 14 9 1 353 347 338 337 333
200 201 195 199 208 202 193 209 213 213 176 160 156 150 152 144 138 132 127 123 120 119 116 115 108 110 112 108 113 98 98 100 73 43 27 12 357 355 337 337 335 335 335
199 194 198 193 199 197 193 199 198 173 164 164 161 152 146 141 137 132 129 128 125 116 107 111 122 131 118 112 111 108 112 106 61 34 20 3 354 346 338 335 330 333 322
188 191 189 193 176 178 175 169 169 164 162 158 151 145 141 139 136 134 134 136 135 133 132 133 130 124 120 118 114 113 101 93 67 49 12 357 340 331 330 332 333 332 331
159 162 178 164 169 162 156 152 156 156 152 149 147 139 135 131 130 133 133 130 126 129 129 134 132 126 122 118 123 117 101 67 35 26 47 340 334 335 340 336 335 334 334
Height
776 778 779 779 779 779 779 779 779 778 779 777 778 779 781 784 786 788 790 794 798 802 807 810 814 818 822 827 833 836 837 839 841 848 853 856 862 863 865 869 869 872 870
775 777 779 780 780 781 782 782 782 783 783 784 783 784 785 787 789 792 796 797 800 803 806 810 815 820 825 829 833 836 838 840 842 847 853 858 860 861 865 869 870 869 869
774 777 779 782 782 783 784 785 785 786 787 788 788 788 789 791 794 795 797 800 804 805 810 814 818 821 825 828 832 836 838 840 843 848 853 856 857 862 866 866 868 868 868
772 775 779 782 784 785 786 787 788 789 789 791 792 794 794 794 796 798 800 804 806 809 813 815 819 824 827 830 833 836 839 840 844 848 852 852 856 860 863 863 865 865 864
771 774 778 781 784 786 787 789 790 791 792 794 795 797 798 799 800 801 802 805 809 812 815 817 821 823 826 829 832 836 838 841 843 844 848 853 853 857 859 860 861 861 862
769 772 776 780 783 786 788 790 792 793 795 796 797 799 800 802 803 805 807 809 811 814 817 821 823 825 827 830 833 837 840 844 845 846 847 849 851 854 857 859 858 857 858
768 770 775 778 781 785 788 791 793 795 797 799 800 802 803 805 807 809 811 814 816 819 822 825 826 828 832 834 836 838 840 840 842 844 845 848 849 853 855 854 853 852 852
765 768 772 776 779 784 787 791 794 796 798 800 802 804 807 808 809 810 812 815 818 820 822 824 827 828 830 832 831 834 838 840 842 844 846 848 848 849 849 849 849 849 848
760 765 769 773 777 781 785 790 793 796 798 801 803 805 807 808 810 812 814 817 819 821 822 823 825 827 828 830 835 838 840 842 841 842 842 842 843 843 843 845 844 844 839
755 760 766 770 774 779 783 788 792 795 798 800 803 805 807 808 809 812 814 817 819 822 824 825 827 830 832 834 837 839 839 839 839 840 839 839 839 838 839 838 839 837 833
750 756 762 768 772 776 781 786 789 793 795 799 801 804 806 808 809 811 814 818 820 822 825 827 829 829 831 832 834 836 837 838 838 837 838 837 836 835 834 833 833 834 831
747 752 758 765 770 774 778 782 786 790 794 797 800 802 804 806 808 810 813 816 818 821 822 825 827 828 830 831 833 834 834 834 835 834 834 833 832 832 832 832 832 830 828
743 748 754 761 767 771 775 779 783 787 789 792 795 798 800 803 806 808 811 814 816 819 822 823 824 826 828 828 829 830 830 831 831 830 828 828 828 828 828 826 825 824 822
739 745 751 756 762 767 772 776 779 782 785 787 790 793 796 800 803 805 808 811 814 816 818 820 822 823 824 826 826 826 826 828 828 827 826 826 826 825 823 821 819 818 818
732 739 746 751 757 762 766 769 772 777 780 782 785 788 791 795 798 801 805 808 811 812 815 818 819 820 821 821 822 823 825 826 826 825 825 824 823 823 821 820 817 813 810
725 732 738 743 750 755 760 764 769 772 776 780 783 785 788 790 793 798 802 805 807 809 811 812 813 814 816 817 818 820 822 823 825 825 824 823 823 824 826 823 817 813 810
714 721 729 735 740 745 751 755 761 768 771 776 779 782 785 787 791 794 797 800 802 804 806 807 808 811 813 815 818 819 819 823 826 825 824 824 823 822 821 825 818 813 811
708 713 719 726 730 736 741 746 751 754 762 767 771 775 778 782 786 790 793 796 799 801 802 804 806 809 810 813 817 823 827 826 827 827 827 824 823 821 819 818 816 812 808
702 706 712 716 721 726 732 738 742 745 749 755 764 768 771 775 779 783 788 791 791 795 799 804 807 808 814 815 816 820 825 826 825 829 829 823 820 821 818 816 813 812 811
695 700 707 712 717 722 727 730 734 738 743 747 754 761 767 771 776 780 784 787 790 796 801 805 808 812 815 815 816 819 817 820 820 822 826 825 820 821 822 816 814 812 810
686 693 699 706 708 714 719 725 729 733 736 741 746 753 761 766 773 777 782 787 792 796 801 804 809 811 815 815 818 822 826 822 822 820 826 825 823 819 820 817 815 815 812
680 684 691 698 704 708 713 719 724 727 730 734 745 753 759 766 771 776 782 788 793 798 803 807 807 811 816 817 815 824 822 825 824 822 824 822 821 820 819 818 816 814 811
675 678 682 691 699 702 706 715 719 723 728 739 746 752 758 763 770 776 782 788 794 797 803 809 816 817 817 816 816 819 822 826 824 822 822 821 820 818 818 817 814 811 809
668 673 679 683 690 696 701 709 713 720 731 741 746 750 756 763 769 774 780 786 793 799 805 809 812 819 818 817 818 820 823 823 823 823 822 820 818 818 817 816 813 809 807
662 669 675 680 685 693 698 706 714 724 732 740 748 753 759 765 769 774 780 785 787 787 803 810 814 817 818 820 821 822 823 822 821 820 821 820 819 817 814 812 809 806 803
663 671 679 679 688 693 700 708 716 724 733 741 748 755 760 769 777 781 784 785 798 800 801 810 815 817 820 820 821 822 822 822 820 819 819 819 818 815 812 810 807 803 800